Location: Montreal
(45.5087°N, 73.5540°W)
Time: 22:15:09
(UTC-05:00)

Amateur Radio Satellites - All Passes

Search period start: 15 December 2017 21:45
Search period end: 16 December 2017 21:45
Location: Montreal, 45.5087°N, 73.5540°W

Satellite Date Start Highest point End Downlink Frequencies (MHz)
Time Altitude Azimuth
ESTCUBE 1 15 Dec 21:46:07 21:50:07 32° 67° (ENE) 21:54:09 437.505/2401.250
TIGRISAT 15 Dec 21:58:13 22:02:34 88° 291° (WNW) 22:07:01 435.000
UNISAT 6 15 Dec 22:01:52 22:06:14 75° 285° (WNW) 22:10:38 437.425
EO-88 15 Dec 22:04:51 22:07:22 18° 267° (W) 22:09:53 145.990 - 145.960
SPROUT 15 Dec 22:10:50 22:13:12 15° 61° (ENE) 22:15:34 437.525
BEESAT 2 15 Dec 22:12:58 22:16:02 20° 321° (NW) 22:19:08 435.950
PRISM 15 Dec 22:18:09 22:22:08 46° 99° (E) 22:26:03 437.425
LO-87 15 Dec 22:30:01 22:33:32 64° 259° (WSW) 22:37:03 145.935 - 145.965
FALCONSAT 3 15 Dec 22:38:10 22:40:24 15° 171° (S) 22:42:38 435.103
SO-50 15 Dec 22:46:22 22:50:45 40° 46° (NE) 22:55:12 436.795
POLYITAN 1 15 Dec 22:48:49 22:50:57 14° 90° (E) 22:53:05 437.675
AO-85 15 Dec 22:51:10 22:54:39 28° 318° (NW) 22:58:21 145.980
AIST 2D 15 Dec 22:55:18 22:58:46 47° 99° (E) 23:02:11 435.315
FO-29 15 Dec 22:59:44 23:02:11 12° 315° (NW) 23:04:34 435.910
QB50P2 15 Dec 23:13:27 23:17:05 27° 95° (E) 23:20:42 145.880/145.840
VELOX 1 15 Dec 23:13:49 23:17:58 40° 69° (ENE) 23:22:08 145.980
DUCHIFAT 1 15 Dec 23:16:47 23:19:57 21° 93° (E) 23:23:07 145.980
ESTCUBE 1 15 Dec 23:23:00 23:26:54 28° 265° (W) 23:30:50 437.505/2401.250
RS-15 15 Dec 23:35:45 23:47:31 73° 241° (WSW) 23:58:37 29.354- 29.394
TIGRISAT 15 Dec 23:37:32 23:38:36 11° 301° (WNW) 23:39:40 435.000
NANOSAT C BR1 15 Dec 23:43:22 23:47:24 45° 99° (E) 23:51:27 145.865
SPROUT 15 Dec 23:44:24 23:48:36 62° 259° (WSW) 23:52:49 437.525
UKube-1 15 Dec 23:48:55 23:51:17 15° 60° (ENE) 23:53:39 .
BUGSAT 1 15 Dec 23:53:28 23:54:59 12° 90° (E) 23:56:30 437.445
PRISM 15 Dec 23:54:18 23:57:03 18° 297° (WNW) 23:59:47 437.425
EO-79 15 Dec 23:59:29 00:03:43 77° 103° (ESE) 00:07:56 145.935-145.965
DX 1 16 Dec 00:05:39 00:09:32 32° 67° (ENE) 00:13:25 434.975-435.025
Oscar 19 16 Dec 00:10:08 00:12:34 13° 88° (E) 00:14:59 437.125/150
FALCONSAT 3 16 Dec 00:16:24 00:18:46 16° 186° (S) 00:21:07 435.103
POLYITAN 1 16 Dec 00:22:56 00:27:06 60° 287° (WNW) 00:31:16 437.675
SO-50 16 Dec 00:27:01 00:31:07 31° 244° (WSW) 00:35:15 436.795
AIST 2D 16 Dec 00:29:48 00:31:31 13° 296° (WNW) 00:33:15 435.315
AO-91 16 Dec 00:39:29 00:41:39 16° 92° (E) 00:43:45 145.960
50 SAT 16 Dec 00:47:33 00:50:42 87° 245° (WSW) 00:53:55 437.505
QB50P2 16 Dec 00:49:10 00:52:49 29° 293° (WNW) 00:56:29 145.880/145.840
ITUPSAT 1 16 Dec 00:50:13 00:51:41 11° 56° (NE) 00:53:09 437.325
VELOX 1 16 Dec 00:51:03 00:54:32 22° 266° (W) 00:58:03 145.980
DUCHIFAT 1 16 Dec 00:51:50 00:55:44 38° 290° (WNW) 00:59:38 145.980
Gurwin Techsat 1B 16 Dec 01:01:07 01:05:42 29° 95° (E) 01:10:15 435.225
PCSat 16 Dec 01:19:01 01:22:43 18° 35° (NE) 01:26:23 145.827
NANOSAT C BR1 16 Dec 01:19:50 01:22:48 19° 296° (WNW) 01:25:45 145.865
YUBILEINY 16 Dec 01:21:20 01:28:02 25° 79° (E) 01:34:44 435.215
MOZHAYETS 4 16 Dec 01:22:23 01:26:16 28° 66° (ENE) 01:30:10
UKube-1 16 Dec 01:22:29 01:26:46 66° 257° (WSW) 01:31:06 .
BUGSAT 1 16 Dec 01:26:44 01:30:43 64° 287° (WNW) 01:34:45 437.445
EO-79 16 Dec 01:37:13 01:38:52 12° 300° (WNW) 01:40:33 145.935-145.965
DX 1 16 Dec 01:41:59 01:45:42 27° 264° (W) 01:49:28 434.975-435.025
AO-7 16 Dec 01:44:17 01:48:31 14° 86° (E) 01:52:42 .
Oscar 19 16 Dec 01:47:18 01:52:33 85° 285° (WNW) 01:57:45 437.125/150
RS-15 16 Dec 01:50:43 01:57:36 18° 264° (W) 02:04:20 29.354- 29.394
BEESAT 16 Dec 01:54:57 01:59:26 43° 69° (ENE) 02:03:55 436.000
AO-91 16 Dec 02:15:13 02:18:18 30° 291° (WNW) 02:21:18 145.960
ITUPSAT 1 16 Dec 02:23:57 02:28:42 79° 74° (ENE) 02:33:29 437.325
BEESAT 3 16 Dec 02:29:23 02:31:38 14° 34° (NE) 02:33:50 437.485
Gurwin Techsat 1B 16 Dec 02:40:47 02:45:45 42° 293° (WNW) 02:50:43 435.225
CUBESAT XI-V 16 Dec 02:48:44 02:53:14 51° 71° (ENE) 02:57:48 437.345
MOZHAYETS 4 16 Dec 02:59:14 03:03:19 33° 264° (W) 03:07:27
PCSat 16 Dec 03:01:34 03:07:01 77° 57° (ENE) 03:12:26 145.827
KKS-1 16 Dec 03:02:41 03:05:28 17° 61° (ENE) 03:08:15 437.445
ITAMSAT 1 16 Dec 03:02:55 03:07:26 29° 95° (E) 03:11:55 435.822/435.867
BEESAT 2 16 Dec 03:13:01 03:15:01 13° 32° (NNE) 03:17:00 435.950
YUBILEINY 16 Dec 03:15:02 03:23:52 77° 280° (W) 03:32:46 435.215
Oscar 19 16 Dec 03:28:32 03:31:04 14° 304° (NW) 03:33:36 437.125/150
BEESAT 16 Dec 03:33:37 03:37:22 23° 266° (W) 03:41:09 436.000
AO-7 16 Dec 03:34:20 03:42:44 71° 106° (ESE) 03:51:06 .
DOVE 4 16 Dec 03:36:20 03:37:42 11° 86° (E) 03:39:04 437.250
STARS 16 Dec 03:41:22 03:44:06 16° 61° (ENE) 03:46:52 437.465
M-CUBED/EXP-1 PRIME 16 Dec 03:53:07 03:57:40 87° 106° (ESE) 04:01:56 437.505
AO-85 16 Dec 03:59:07 04:01:52 15° 32° (NNE) 04:04:42 145.980
ITUPSAT 1 16 Dec 04:05:08 04:07:06 12° 271° (W) 04:09:05 437.325
BEESAT 3 16 Dec 04:05:48 04:09:46 86° 56° (NE) 04:13:39 437.485
CUBESAT XI-V 16 Dec 04:27:36 04:30:54 19° 269° (W) 04:34:14 437.345
KKS-1 16 Dec 04:37:08 04:41:33 61° 258° (WSW) 04:45:59 437.445
ITAMSAT 1 16 Dec 04:42:11 04:46:58 39° 293° (WNW) 04:51:44 435.822/435.867
PCSat 16 Dec 04:46:22 04:49:45 17° 255° (WSW) 04:53:07 145.827
BEESAT 2 16 Dec 04:49:26 04:53:29 71° 52° (NE) 04:57:27 435.950
NO-84 16 Dec 05:05:46 05:07:05 12° 126° (SE) 05:08:26 435.350 FM
LilacSat-2 16 Dec 05:06:47 05:09:33 18° 92° (E) 05:12:18 437.200
DOVE 4 16 Dec 05:11:32 05:16:02 74° 286° (WNW) 05:20:17 437.250
STARS 16 Dec 05:15:40 05:20:00 59° 259° (WSW) 05:24:21 437.465
YUBILEINY 16 Dec 05:16:32 05:22:21 19° 304° (NW) 05:28:12 435.215
NUDT-PHONESAT 16 Dec 05:16:50 05:19:00 15° 91° (E) 05:21:08 437.300
XW-2D 16 Dec 05:18:38 05:21:47 23° 94° (E) 05:24:54 145.860 - 145.880
KAITUO 1B 16 Dec 05:23:01 05:25:43 18° 92° (E) 05:28:25 145.475/437.950
STRAND 1 16 Dec 05:26:46 05:31:00 27° 64° (ENE) 05:35:13 437.568
AO-7 16 Dec 05:27:49 05:34:54 32° 307° (NW) 05:41:59 .
M-CUBED/EXP-1 PRIME 16 Dec 05:29:04 05:31:18 14° 308° (NW) 05:33:30 437.505
XW-2B 16 Dec 05:34:18 05:37:50 33° 97° (E) 05:41:20 145.730 - 145.750
CUTE 1.7 + AOD 2 16 Dec 05:37:08 05:37:44 10° 87° (E) 05:38:19 437.475
AO-85 16 Dec 05:38:24 05:43:07 64° 52° (NE) 05:48:10 145.980
FO-29 16 Dec 05:41:30 05:47:13 23° 55° (NE) 05:52:52 435.910
XW-2F 16 Dec 05:44:49 05:48:30 42° 98° (E) 05:52:08 145.980 - 146.000
XW-2C 16 Dec 06:01:35 06:05:27 74° 103° (ESE) 06:09:17 145.795 - 145.815
CUTE-I 16 Dec 06:18:56 06:24:17 73° 103° (ESE) 06:29:35 437.470
HO-68 16 Dec 06:20:28 06:27:02 37° 97° (E) 06:33:32 435.675
BEESAT 2 16 Dec 06:28:52 06:30:38 13° 251° (WSW) 06:32:22 435.950
UWE-3 16 Dec 06:36:03 06:38:47 16° 91° (E) 06:41:32 435.000/436.395/437.385
CUBEBUG 2 16 Dec 06:39:05 06:42:49 29° 96° (E) 06:46:39 437.445
LilacSat-2 16 Dec 06:40:21 06:43:57 36° 289° (WNW) 06:47:31 437.200
NO-84 16 Dec 06:40:46 06:43:47 71° 326° (NW) 06:47:04 435.350 FM
SEEDS 16 Dec 06:43:48 06:47:40 33° 96° (E) 06:51:29 437.485
NUDT-PHONESAT 16 Dec 06:49:28 06:53:03 43° 288° (WNW) 06:56:37 437.300
XW-2D 16 Dec 06:52:36 06:55:56 28° 291° (WNW) 06:59:14 145.860 - 145.880
KAITUO 1B 16 Dec 06:56:19 06:59:48 35° 290° (WNW) 07:03:15 145.475/437.950
ZACube-1 16 Dec 06:57:32 07:00:02 15° 90° (E) 07:02:32 437.345
AAUSAT CUBESAT 2 16 Dec 06:58:03 07:01:12 20° 93° (E) 07:04:19 437.432
XW-2A 16 Dec 06:58:49 07:01:13 18° 93° (E) 07:03:36 145.665 - 145.685
O/OREOS (USA 219) 16 Dec 07:00:42 07:03:57 19° 101° (E) 07:07:12 437.305
STRAND 1 16 Dec 07:05:05 07:09:57 44° 261° (W) 07:14:51 437.568
XW-2B 16 Dec 07:08:54 07:11:47 20° 294° (WNW) 07:14:40 145.730 - 145.750
CUTE 1.7 + AOD 2 16 Dec 07:09:48 07:14:07 80° 285° (WNW) 07:18:23 437.475
Oscar 11 16 Dec 07:14:48 07:16:44 13° 89° (E) 07:18:38 .
AO-85 16 Dec 07:19:40 07:23:12 20° 248° (WSW) 07:26:53 145.980
XW-2F 16 Dec 07:19:46 07:22:16 17° 296° (WNW) 07:24:46 145.980 - 146.000
FO-29 16 Dec 07:23:25 07:31:15 86° 72° (ENE) 07:39:05 435.910
TIGRISAT 16 Dec 07:25:26 07:27:01 12° 59° (ENE) 07:28:34 435.000
UNISAT 6 16 Dec 07:28:29 07:30:41 14° 61° (ENE) 07:32:54 437.425
AO-73 16 Dec 07:29:26 07:33:12 27° 95° (E) 07:37:00 145.935
XW-2C 16 Dec 07:38:02 07:39:01 11° 299° (WNW) 07:40:01 145.795 - 145.815
CUTE-I 16 Dec 08:00:11 08:03:44 18° 302° (WNW) 08:07:16 437.470
HO-68 16 Dec 08:08:05 08:14:54 48° 296° (WNW) 08:21:40 435.675
UWE-3 16 Dec 08:11:19 08:15:31 53° 287° (WNW) 08:19:49 435.000/436.395/437.385
CUBEBUG 2 16 Dec 08:15:44 08:19:24 28° 292° (WNW) 08:23:08 437.445
NO-84 16 Dec 08:19:02 08:21:31 20° 347° (NNW) 08:24:11 435.350 FM
SEEDS 16 Dec 08:19:42 08:23:12 25° 293° (WNW) 08:26:39 437.485
XW-2A 16 Dec 08:30:56 08:33:57 29° 290° (WNW) 08:36:58 145.665 - 145.685
ZACube-1 16 Dec 08:32:21 08:36:39 59° 287° (WNW) 08:41:01 437.345
AAUSAT CUBESAT 2 16 Dec 08:32:54 08:36:46 37° 290° (WNW) 08:40:36 437.432
O/OREOS (USA 219) 16 Dec 08:38:32 08:42:59 49° 299° (WNW) 08:47:26 437.305
Oscar 11 16 Dec 08:48:59 08:53:20 68° 285° (WNW) 08:57:38 .
TIGRISAT 16 Dec 08:58:49 09:03:06 79° 259° (W) 09:07:22 435.000
UNISAT 6 16 Dec 09:02:38 09:06:54 66° 259° (W) 09:11:09 437.425
AO-73 16 Dec 09:05:33 09:09:25 31° 291° (WNW) 09:13:20 145.935
Max Valier Satellite 16 Dec 09:06:08 09:09:16 25° 95° (E) 09:12:24 145.860
PRISM 16 Dec 09:08:58 09:12:55 44° 71° (ENE) 09:16:54 437.425
FO-29 16 Dec 09:11:18 09:17:03 22° 273° (W) 09:22:50 435.910
DELFI C3 16 Dec 09:17:49 09:21:41 51° 99° (E) 09:25:30 145.870
EO-88 16 Dec 09:29:46 09:33:07 32° 97° (E) 09:36:25 145.990 - 145.960
AIST 2D 16 Dec 09:31:36 09:34:27 24° 69° (ENE) 09:37:22 435.315
POLYITAN 1 16 Dec 09:43:39 09:45:58 15° 61° (ENE) 09:48:15 437.675
NO-84 16 Dec 09:57:15 09:59:45 18° 9° (N) 10:02:22 435.350 FM
HO-68 16 Dec 09:58:54 10:00:56 11° 317° (NW) 10:02:58 435.675
nSIGHT-1 16 Dec 10:01:33 10:03:50 18° 136° (SE) 10:06:08 .
QB50P2 16 Dec 10:08:01 10:11:34 27° 67° (ENE) 10:15:09 145.880/145.840
DUCHIFAT 1 16 Dec 10:10:40 10:13:47 21° 65° (ENE) 10:16:54 145.980
NANOSAT C BR1 16 Dec 10:37:10 10:41:08 43° 70° (ENE) 10:45:06 145.865
Max Valier Satellite 16 Dec 10:39:55 10:43:01 25° 292° (WNW) 10:46:06 145.860
PRISM 16 Dec 10:45:34 10:48:24 18° 268° (W) 10:51:14 437.425
BUGSAT 1 16 Dec 10:45:37 10:47:14 12° 60° (ENE) 10:48:51 437.445
ISS 16 Dec 10:49:14 10:52:17 37° 142° (SE) 10:55:22 437.550
EO-79 16 Dec 10:53:31 10:57:41 75° 75° (ENE) 11:01:53 145.935-145.965
DELFI C3 16 Dec 10:53:44 10:56:01 15° 297° (WNW) 10:58:17 145.870
EO-88 16 Dec 11:03:51 11:06:32 19° 294° (WNW) 11:09:13 145.990 - 145.960
AIST 2D 16 Dec 11:04:43 11:07:33 23° 265° (W) 11:10:26 435.315
ESTCUBE 1 16 Dec 11:12:16 11:16:43 50° 100° (E) 11:21:06 437.505/2401.250
POLYITAN 1 16 Dec 11:17:07 11:21:15 61° 260° (W) 11:25:24 437.675
LO-87 16 Dec 11:27:33 11:31:06 71° 284° (WNW) 11:34:37 145.935 - 145.965
YUBILEINY 16 Dec 11:27:55 11:32:18 14° 51° (NE) 11:36:39 435.215
SPROUT 16 Dec 11:28:21 11:31:20 18° 92° (E) 11:34:19 437.525
Oscar 19 16 Dec 11:28:22 11:32:31 26° 63° (ENE) 11:36:43 437.125/150
NO-84 16 Dec 11:34:14 11:37:42 42° 29° (NNE) 11:41:25 435.350 FM
nSIGHT-1 16 Dec 11:36:31 11:39:44 72° 333° (NNW) 11:42:58 .
AO-91 16 Dec 11:37:32 11:41:22 25° 68° (ENE) 11:44:54 145.960
QB50P2 16 Dec 11:43:38 11:47:17 29° 264° (W) 11:50:58 145.880/145.840
DUCHIFAT 1 16 Dec 11:45:18 11:49:11 39° 262° (W) 11:53:06 145.980
RS-15 16 Dec 11:55:54 12:01:42 15° 93° (E) 12:07:28 29.354- 29.394
NANOSAT C BR1 16 Dec 12:14:09 12:17:02 18° 268° (W) 12:19:55 145.865
BUGSAT 1 16 Dec 12:18:02 12:22:03 70° 258° (WSW) 12:26:04 437.445
Gurwin Techsat 1B 16 Dec 12:24:08 12:29:19 57° 70° (ENE) 12:34:33 435.225
ISS 16 Dec 12:25:35 12:28:45 44° 340° (NNW) 12:31:56 437.550
EO-79 16 Dec 12:33:00 12:33:57 11° 272° (W) 12:34:53 145.935-145.965
VELOX 1 16 Dec 12:37:24 12:41:46 57° 101° (E) 12:46:05 145.980
AO-7 16 Dec 12:44:58 12:51:49 30° 52° (NE) 12:58:43 .
ESTCUBE 1 16 Dec 12:49:54 12:53:09 20° 297° (WNW) 12:56:23 437.505/2401.250
SPROUT 16 Dec 13:03:23 13:07:25 43° 289° (WNW) 13:11:27 437.525
Oscar 19 16 Dec 13:06:38 13:11:34 47° 261° (W) 13:16:34 437.125/150
M-CUBED/EXP-1 PRIME 16 Dec 13:07:01 13:10:15 20° 56° (ENE) 13:13:35 437.505
UKube-1 16 Dec 13:08:07 13:10:55 17° 92° (E) 13:13:42 .
NO-84 16 Dec 13:11:29 13:14:57 36° 225° (SW) 13:18:39 435.350 FM
AO-91 16 Dec 13:13:14 13:17:41 37° 262° (W) 13:21:46 145.960
nSIGHT-1 16 Dec 13:13:28 13:16:18 28° 353° (N) 13:19:09 .
YUBILEINY 16 Dec 13:22:34 13:31:20 61° 76° (ENE) 13:39:58 435.215
DX 1 16 Dec 13:27:02 13:31:11 41° 99° (E) 13:35:17 434.975-435.025
50 SAT 16 Dec 13:33:09 13:36:14 50° 101° (E) 13:39:17 437.505
RS-15 16 Dec 13:59:32 14:11:32 63° 115° (ESE) 14:23:27 29.354- 29.394
ISS 16 Dec 14:02:53 14:05:45 27° 1° (N) 14:08:37 437.550
Gurwin Techsat 1B 16 Dec 14:05:39 14:09:38 21° 268° (W) 14:13:37 435.225
VELOX 1 16 Dec 14:14:57 14:17:46 17° 299° (WNW) 14:20:32 145.980
ITAMSAT 1 16 Dec 14:22:47 14:27:52 58° 70° (ENE) 14:32:59 435.822/435.867
ITUPSAT 1 16 Dec 14:23:11 14:26:16 17° 91° (E) 14:29:21 437.325
AO-7 16 Dec 14:35:35 14:43:53 75° 253° (WSW) 14:52:16 .
M-CUBED/EXP-1 PRIME 16 Dec 14:39:51 14:44:10 56° 254° (WSW) 14:48:43 437.505
DOVE 4 16 Dec 14:42:05 14:45:47 20° 63° (ENE) 14:49:24 437.250
SO-50 16 Dec 14:42:38 14:46:56 49° 120° (ESE) 14:51:18 436.795
UKube-1 16 Dec 14:43:02 14:47:13 50° 289° (WNW) 14:51:21 .
CUBESAT XI-V 16 Dec 14:45:30 14:46:37 11° 86° (E) 14:47:45 437.345
nSIGHT-1 16 Dec 14:50:07 14:53:05 32° 13° (NNE) 14:56:02 .
MOZHAYETS 4 16 Dec 14:51:11 14:55:40 47° 99° (E) 15:00:08
DX 1 16 Dec 15:03:48 15:07:06 21° 296° (WNW) 15:10:22 434.975-435.025
YUBILEINY 16 Dec 15:20:05 15:27:35 33° 277° (W) 15:35:01 435.215
BEESAT 16 Dec 15:29:55 15:34:42 75° 102° (ESE) 15:39:28 436.000
ISS 16 Dec 15:39:32 15:42:44 46° 20° (NNE) 15:45:56 437.550
LilacSat-2 16 Dec 15:51:33 15:53:31 14° 63° (ENE) 15:55:29 437.200
ITUPSAT 1 16 Dec 15:59:46 16:04:29 60° 288° (WNW) 16:09:11 437.325
XW-2D 16 Dec 16:02:23 16:04:51 17° 64° (ENE) 16:07:21 145.860 - 145.880
ITAMSAT 1 16 Dec 16:03:55 16:07:42 20° 268° (W) 16:11:30 435.822/435.867
CUTE-I 16 Dec 16:04:39 16:08:45 23° 61° (ENE) 16:12:51 437.470
KAITUO 1B 16 Dec 16:05:52 16:07:37 13° 62° (ENE) 16:09:23 145.475/437.950
RS-15 16 Dec 16:12:33 16:24:31 52° 321° (NW) 16:36:18 29.354- 29.394
XW-2B 16 Dec 16:17:41 16:20:42 23° 67° (ENE) 16:23:46 145.730 - 145.750
DOVE 4 16 Dec 16:17:49 16:23:01 63° 259° (W) 16:28:04 437.250
CUBESAT XI-V 16 Dec 16:19:54 16:24:40 88° 274° (W) 16:29:21 437.345
SO-50 16 Dec 16:23:49 16:27:37 26° 320° (NW) 16:31:28 436.795
nSIGHT-1 16 Dec 16:26:17 16:29:30 70° 212° (SSW) 16:32:41 .
KKS-1 16 Dec 16:26:20 16:29:43 21° 93° (E) 16:33:04 437.445
XW-2F 16 Dec 16:27:35 16:30:49 27° 69° (ENE) 16:34:06 145.980 - 146.000
MOZHAYETS 4 16 Dec 16:29:02 16:32:30 21° 297° (WNW) 16:35:58
CUTE 1.7 + AOD 2 16 Dec 16:31:58 16:33:06 11° 59° (ENE) 16:34:14 437.475
AO-7 16 Dec 16:33:24 16:38:01 16° 273° (W) 16:42:41 .
XW-2C 16 Dec 16:44:29 16:48:07 46° 72° (ENE) 16:51:49 145.795 - 145.815
HO-68 16 Dec 16:51:33 16:57:56 36° 60° (ENE) 17:04:19 435.675
STARS 16 Dec 17:03:14 17:06:30 20° 93° (E) 17:09:45 437.465
O/OREOS (USA 219) 16 Dec 17:07:01 17:11:28 53° 62° (ENE) 17:15:51 437.305
BEESAT 16 Dec 17:09:08 17:11:53 15° 301° (WNW) 17:14:37 436.000
ISS 16 Dec 17:16:09 17:19:10 34° 218° (SW) 17:22:10 437.550
LilacSat-2 16 Dec 17:23:35 17:27:20 54° 259° (W) 17:31:08 437.200
NUDT-PHONESAT 16 Dec 17:29:44 17:33:24 74° 257° (WSW) 17:37:08 437.300
XW-2D 16 Dec 17:35:07 17:38:42 41° 262° (W) 17:42:21 145.860 - 145.880
UWE-3 16 Dec 17:35:36 17:38:14 17° 63° (ENE) 17:40:52 435.000/436.395/437.385
SEEDS 16 Dec 17:37:19 17:41:00 30° 68° (ENE) 17:44:44 437.485
KAITUO 1B 16 Dec 17:37:26 17:41:07 56° 260° (W) 17:44:52 145.475/437.950
CUBEBUG 2 16 Dec 17:39:22 17:43:02 30° 68° (ENE) 17:46:40 437.445
CUTE-I 16 Dec 17:43:06 17:48:23 58° 259° (W) 17:53:42 437.470
PCSat 16 Dec 17:45:20 17:50:27 44° 114° (ESE) 17:55:35 145.827
AAUSAT CUBESAT 2 16 Dec 17:50:18 17:53:15 19° 64° (ENE) 17:56:14 437.432
XW-2B 16 Dec 17:51:27 17:54:45 28° 264° (W) 17:58:07 145.730 - 145.750
ZACube-1 16 Dec 17:55:59 17:58:18 15° 62° (ENE) 18:00:39 437.345
CUBESAT XI-V 16 Dec 17:59:23 18:01:16 12° 302° (WNW) 18:03:09 437.345
XW-2F 16 Dec 18:01:50 18:04:54 23° 266° (W) 18:08:00 145.980 - 146.000
KKS-1 16 Dec 18:02:15 18:06:26 41° 291° (WNW) 18:10:34 437.445
CUTE 1.7 + AOD 2 16 Dec 18:03:58 18:08:14 88° 249° (WSW) 18:12:33 437.475
nSIGHT-1 16 Dec 18:04:42 18:05:09 10° 229° (SW) 18:05:36 .
Oscar 11 16 Dec 18:11:54 18:14:06 14° 61° (ENE) 18:16:20 .
XW-2C 16 Dec 18:20:29 18:22:33 14° 269° (W) 18:24:39 145.795 - 145.815
AO-73 16 Dec 18:27:12 18:30:38 26° 67° (ENE) 18:34:07 145.935
RS-15 16 Dec 18:30:13 18:40:38 31° 353° (N) 18:50:44 29.354- 29.394
FO-29 16 Dec 18:36:27 18:37:14 10° 79° (E) 18:38:01 435.910
HO-68 16 Dec 18:38:27 18:45:26 52° 260° (W) 18:52:27 435.675
STARS 16 Dec 18:38:53 18:43:00 41° 290° (WNW) 18:47:06 437.465
O/OREOS (USA 219) 16 Dec 18:47:31 18:50:25 17° 260° (W) 18:53:18 437.305
XW-2A 16 Dec 19:03:08 19:06:27 65° 258° (WSW) 19:09:50 145.665 - 145.685
UWE-3 16 Dec 19:10:18 19:14:19 49° 261° (W) 19:18:21 435.000/436.395/437.385
STRAND 1 16 Dec 19:12:53 19:17:54 53° 100° (E) 19:22:51 437.568
SEEDS 16 Dec 19:13:04 19:16:40 27° 266° (W) 19:20:18 437.485
CUBEBUG 2 16 Dec 19:16:12 19:19:40 25° 266° (W) 19:23:07 437.445
AAUSAT CUBESAT 2 16 Dec 19:24:24 19:28:24 44° 262° (W) 19:32:25 437.432
PCSat 16 Dec 19:29:04 19:33:58 34° 314° (NW) 19:38:54 145.827
ZACube-1 16 Dec 19:30:04 19:34:07 58° 259° (W) 19:38:15 437.345
BEESAT 3 16 Dec 19:33:42 19:37:39 72° 123° (ESE) 19:41:40 437.485
Oscar 11 16 Dec 19:45:24 19:49:42 69° 259° (WSW) 19:54:02 .
Max Valier Satellite 16 Dec 19:47:33 19:49:53 16° 65° (ENE) 19:52:14 145.860
AO-73 16 Dec 20:03:12 20:06:48 29° 265° (W) 20:10:27 145.935
DELFI C3 16 Dec 20:04:41 20:08:24 38° 71° (ENE) 20:12:07 145.870
EO-88 16 Dec 20:09:40 20:12:22 20° 66° (ENE) 20:15:05 145.990 - 145.960
FO-29 16 Dec 20:17:00 20:23:55 66° 101° (E) 20:29:56 435.910
BEESAT 2 16 Dec 20:19:14 20:23:12 61° 122° (ESE) 20:27:13 435.950
RS-15 16 Dec 20:46:21 20:57:27 39° 27° (NNE) 21:08:00 29.354- 29.394
TIGRISAT 16 Dec 20:48:32 20:51:31 18° 92° (E) 20:54:33 435.000
UNISAT 6 16 Dec 20:52:11 20:55:33 21° 93° (E) 20:58:56 437.425
STRAND 1 16 Dec 20:52:49 20:56:43 23° 298° (WNW) 21:00:36 437.568
BEESAT 3 16 Dec 21:12:53 21:15:37 18° 322° (NW) 21:18:23 437.485
PCSat 16 Dec 21:18:13 21:19:07 10° 337° (NNW) 21:20:01 145.827
Max Valier Satellite 16 Dec 21:19:58 21:23:24 39° 262° (W) 21:26:53 145.860
SO-50 16 Dec 21:31:48 21:34:59 18° 34° (NNE) 21:38:10 436.795
AO-85 16 Dec 21:35:10 21:39:06 88° 113° (ESE) 21:43:17 145.980
